Weather History for Buffalo, WY

Change the Weather History Date:

Friday, October 5, 2012

  Actual Average Record
Temperature  
Mean Temperature 31 °F 49 °F  
Max Temperature 36 °F 61 °F 79 °F (2006)
Min Temperature 26 °F 37 °F 20 °F (2001)
Degree Days  
Heating Degree Days 34 16  
Month to date heating degree days 75  
Since 1 July heating degree days 389  
Cooling Degree Days 0 0  
Month to date cooling degree days 0  
Year to date cooling degree days 491  
Moisture  
Dew Point 28 °F    
Average Humidity 91    
Maximum Humidity 100    
Minimum Humidity 70    
Precipitation  
Precipitation 0.26 in 0.04 in 0.50 in (2008)
Month to date precipitation 0.23  
Year to date precipitation 11.81  
Sea Level Pressure  
Sea Level Pressure 30.34 in    
Wind  
Wind Speed 4 mph (NNW)    
Max Wind Speed 20 mph    
Max Gust Speed 26 mph    
Visibility 3 miles    
Events Fog , Snow    
T = Trace of Precipitation, MM = Missing Value Source: NWS Daily Summary

Daily Weather History Graph

Daily Weather History Graph

Search for Another Location

Airport:

Trip Planner

Search our weather history database for the weather conditions in past years. The results will help you decide how hot, cold, wet, or windy it might be!

Date:

Astronomy

Oct. 05, 2012 Rise Set
Actual Time 7:10 AM MDT 6:39 PM MDT
Civil Twilight 6:41 AM MDT 7:08 PM MDT
Nautical Twilight 6:07 AM MDT 7:41 PM MDT
Astronomical Twilight 5:33 AM MDT 8:15 PM MDT
Moon 9:54 PM MDT (10/5) 12:31 PM MDT (10/5)
Length of Visible Light 12h 27m
Length of Day
11h 29m
Waning Gibbous, 73% of the Moon is Illuminated
Oct 5
Waning Gibbous
Oct 8
Last Quarter
Oct 15
New
Oct 21
First Quarter
Oct 29
Full

Hourly Weather History & Observations

Time (MDT) Temp. Windchill Dew Point Humidity Pressure Visibility Wind Dir Wind Speed Gust Speed Precip Events Conditions
12:16 AM 30.2 °F - 28.4 °F 93% 30.31 in 3.0 mi Calm Calm - 0.00 in Snow Light Snow
12:40 AM 30.2 °F - 28.4 °F 93% 30.31 in 1.8 mi Calm Calm - 0.00 in Snow Light Snow
12:53 AM 30.9 °F - 28.9 °F 92% 30.36 in 1.2 mi Calm Calm - 0.01 in Snow Light Snow
1:16 AM 30.2 °F - 28.4 °F 93% 30.31 in 1.8 mi Calm Calm - 0.00 in Snow Light Snow
1:38 AM 30.2 °F - 28.4 °F 93% 30.31 in 0.8 mi Calm Calm - 0.01 in Snow Light Snow
1:53 AM 30.9 °F - 28.9 °F 92% 30.36 in 0.8 mi Calm Calm - 0.02 in Snow Light Snow
2:02 AM 30.2 °F 25.4 °F 28.4 °F 93% 30.31 in 0.8 mi ESE 4.6 mph - 0.01 in Snow Light Snow
2:09 AM 30.2 °F 24.3 °F 28.4 °F 93% 30.31 in 0.5 mi ESE 5.8 mph - 0.01 in Fog , Snow Light Snow
2:16 AM 30.2 °F 24.3 °F 28.4 °F 93% 30.31 in 1.2 mi SE 5.8 mph - 0.02 in Snow Light Snow
2:53 AM 30.0 °F 24.1 °F 28.9 °F 96% 30.36 in 1.5 mi SE 5.8 mph - 0.03 in Snow Light Snow
3:04 AM 30.2 °F 25.4 °F 28.4 °F 93% 30.30 in 1.2 mi SSE 4.6 mph - 0.00 in Snow Light Snow
3:09 AM 30.2 °F 25.4 °F 28.4 °F 93% 30.30 in 2.0 mi SSE 4.6 mph - 0.00 in Snow Light Snow
3:40 AM 28.4 °F - 28.4 °F 100% 30.30 in 3.0 mi Calm Calm - 0.00 in Snow Light Snow
3:53 AM 28.9 °F - 28.0 °F 96% 30.36 in 4.0 mi Calm Calm - 0.01 in Snow Light Snow
4:53 AM 28.9 °F - 28.0 °F 96% 30.35 in 8.0 mi Calm Calm - 0.00 in   Overcast
5:53 AM 28.9 °F - 27.0 °F 92% 30.36 in 10.0 mi Calm Calm - N/A   Overcast
6:53 AM 30.0 °F - 28.0 °F 92% 30.36 in 10.0 mi Calm Calm - N/A   Overcast
7:53 AM 30.0 °F - 28.0 °F 92% 30.38 in 9.0 mi Calm Calm - N/A   Overcast
8:04 AM 30.2 °F - 28.4 °F 93% 30.31 in 2.5 mi Calm Calm - 0.00 in Snow Light Snow
8:13 AM 30.2 °F - 28.4 °F 93% 30.31 in 1.2 mi Calm Calm - 0.00 in Snow Light Snow
8:20 AM 30.2 °F - 28.4 °F 93% 30.32 in 2.0 mi Calm Calm - 0.00 in Snow Light Snow
8:27 AM 30.2 °F - 28.4 °F 93% 30.31 in 1.8 mi Calm Calm - 0.00 in Snow Light Snow
8:53 AM 30.0 °F - 28.0 °F 92% 30.40 in 2.5 mi Calm Calm - 0.00 in Snow Light Snow
8:59 AM 30.2 °F - 28.4 °F 93% 30.32 in 3.0 mi Calm Calm - 0.00 in Snow Light Snow
9:17 AM 30.2 °F - 28.4 °F 93% 30.32 in 6.0 mi Calm Calm - 0.00 in   Overcast
9:44 AM 30.2 °F - 28.4 °F 93% 30.32 in 6.0 mi Calm Calm - 0.00 in Snow Light Snow
9:53 AM 30.9 °F - 28.0 °F 89% 30.41 in 7.0 mi Calm Calm - 0.00 in Snow Light Snow
10:50 AM 33.8 °F - 28.4 °F 81% 30.33 in 10.0 mi Calm Calm - N/A   Overcast
11:35 AM 33.8 °F - 28.4 °F 81% 30.33 in 10.0 mi Calm Calm - N/A   Overcast
11:44 AM 33.8 °F - 26.6 °F 75% 30.33 in 10.0 mi Calm Calm - N/A   Overcast
11:53 AM 34.0 °F - 27.0 °F 75% 30.40 in 10.0 mi Calm Calm - N/A   Overcast
12:53 PM 35.1 °F - 27.0 °F 72% 30.39 in 10.0 mi Calm Calm - N/A   Unknown
1:02 PM 35.6 °F - 26.6 °F 70% 30.31 in 10.0 mi Calm Calm - N/A   Overcast
1:46 PM 35.6 °F 31.7 °F 28.4 °F 75% 30.30 in 10.0 mi South 4.6 mph - N/A   Overcast
1:53 PM 36.0 °F - 27.0 °F 70% 30.36 in 10.0 mi Calm Calm - N/A   Overcast
2:03 PM 33.8 °F 26.4 °F 30.2 °F 87% 30.30 in 2.0 mi North 9.2 mph - 0.00 in Snow Light Snow
2:06 PM 33.8 °F 27.0 °F 30.2 °F 87% 30.30 in 1.0 mi NNW 8.1 mph - 0.00 in Snow Light Snow
2:14 PM 32.0 °F 24.2 °F 30.2 °F 93% 30.29 in 0.5 mi NW 9.2 mph - 0.03 in Fog , Snow Snow
2:51 PM 32.0 °F 26.4 °F 30.2 °F 93% 30.30 in 1.0 mi WNW 5.8 mph - 0.07 in Snow Light Snow
2:53 PM 32.0 °F 26.4 °F 30.0 °F 92% 30.38 in 1.2 mi WNW 5.8 mph - 0.07 in Snow Light Snow
3:00 PM 32.0 °F 27.5 °F 30.2 °F 93% 30.30 in 3.0 mi WNW 4.6 mph - 0.00 in Snow Light Snow
3:08 PM 33.8 °F 30.8 °F 30.2 °F 87% 30.30 in 9.0 mi WNW 3.5 mph - 0.00 in   Overcast
3:53 PM 35.1 °F 27.9 °F 28.0 °F 76% 30.37 in 10.0 mi NW 9.2 mph - 0.00 in   Overcast
4:19 PM 33.8 °F 23.9 °F 28.4 °F 81% 30.30 in 3.0 mi North 15.0 mph 23.0 mph 0.00 in Snow Light Snow
4:25 PM 33.8 °F 24.3 °F 30.2 °F 87% 30.30 in 1.8 mi North 13.8 mph 23.0 mph 0.00 in Snow Light Snow
4:34 PM 33.8 °F 25.3 °F 30.2 °F 87% 30.30 in 1.2 mi North 11.5 mph 21.9 mph 0.00 in Snow Light Snow
4:41 PM 32.0 °F 23.6 °F 30.2 °F 93% 30.31 in 1.0 mi North 10.4 mph 20.7 mph 0.00 in Snow Light Snow
4:44 PM 32.0 °F 23.0 °F 30.2 °F 93% 30.31 in 0.8 mi North 11.5 mph - 0.00 in Snow Light Snow
4:53 PM 32.0 °F 23.6 °F 30.0 °F 92% 30.40 in 0.8 mi North 10.4 mph - 0.00 in Snow Light Snow
5:06 PM 30.2 °F 23.4 °F 30.2 °F 100% 30.31 in 1.2 mi North 6.9 mph - 0.01 in Snow Light Snow
5:25 PM 30.2 °F 23.4 °F 30.2 °F 100% 30.31 in 0.8 mi NNE 6.9 mph - 0.01 in Snow Light Snow
5:49 PM 30.2 °F 22.6 °F 30.2 °F 100% 30.31 in 1.2 mi North 8.1 mph - 0.02 in Snow Light Snow
5:53 PM 30.9 °F 23.5 °F 30.0 °F 96% 30.40 in 1.5 mi North 8.1 mph - 0.02 in Snow Light Snow
6:08 PM 30.2 °F 23.4 °F 28.4 °F 93% 30.31 in 2.0 mi North 6.9 mph - 0.00 in Snow Light Snow
6:16 PM 30.2 °F 24.3 °F 28.4 °F 93% 30.31 in 3.0 mi North 5.8 mph - 0.00 in Snow Light Snow
6:53 PM 30.9 °F 23.5 °F 28.0 °F 89% 30.40 in 2.5 mi NW 8.1 mph - 0.00 in Snow Light Snow
7:08 PM 30.2 °F 21.9 °F 28.4 °F 93% 30.32 in 1.8 mi NNW 9.2 mph - 0.00 in Snow Light Snow
7:20 PM 30.2 °F 20.8 °F 28.4 °F 93% 30.32 in 1.2 mi NW 11.5 mph - 0.01 in Snow Light Snow
7:31 PM 30.2 °F 20.8 °F 28.4 °F 93% 30.32 in 1.2 mi NNW 11.5 mph - 0.01 in Snow Light Snow
7:53 PM 30.0 °F 20.5 °F 28.0 °F 92% 30.42 in 1.5 mi NNW 11.5 mph - 0.01 in Snow Light Snow
8:00 PM 30.2 °F 20.2 °F 28.4 °F 93% 30.33 in 0.8 mi NNW 12.7 mph - 0.01 in Snow Light Snow
8:15 PM 28.4 °F 15.4 °F 26.6 °F 93% 30.34 in 0.2 mi North 19.6 mph 23.0 mph 0.03 in Fog , Snow Heavy Snow
8:53 PM 28.0 °F 18.6 °F 27.0 °F 96% 30.45 in 0.8 mi North 10.4 mph - 0.07 in Snow Light Snow
9:18 PM 28.4 °F 17.0 °F 26.6 °F 93% 30.36 in 1.0 mi North 15.0 mph 23.0 mph 0.01 in Snow Light Snow
9:25 PM 28.4 °F 16.2 °F 26.6 °F 93% 30.35 in 1.0 mi North 17.3 mph 24.2 mph 0.01 in Snow Light Snow
9:35 PM 28.4 °F 16.2 °F 26.6 °F 93% 30.35 in 1.5 mi North 17.3 mph 24.2 mph 0.01 in Snow Light Snow
9:45 PM 28.4 °F 18.0 °F 26.6 °F 93% 30.35 in 1.0 mi NNW 12.7 mph - 0.02 in Snow Light Snow
9:53 PM 28.0 °F 17.0 °F 26.1 °F 92% 30.45 in 1.5 mi NNW 13.8 mph 24.2 mph 0.02 in Snow Light Snow
10:03 PM 26.6 °F 15.7 °F 24.8 °F 93% 30.36 in 2.0 mi NNW 12.7 mph 26.5 mph 0.00 in Snow Light Snow
10:36 PM 26.6 °F 16.2 °F 24.8 °F 93% 30.36 in 2.0 mi NNW 11.5 mph 23.0 mph 0.00 in Snow Light Snow
10:44 PM 26.6 °F 16.2 °F 26.6 °F 100% 30.36 in 1.5 mi North 11.5 mph - 0.00 in Snow Light Snow
10:53 PM 28.0 °F 17.5 °F 26.1 °F 92% 30.44 in 1.2 mi North 12.7 mph 24.2 mph 0.00 in Snow Light Snow
10:57 PM 28.4 °F 18.5 °F 26.6 °F 93% 30.36 in 1.2 mi North 11.5 mph 24.2 mph 0.00 in Snow Light Snow
11:12 PM 26.6 °F 14.3 °F 26.6 °F 100% 30.36 in 2.0 mi NNW 16.1 mph 25.3 mph 0.00 in Snow Light Snow
11:30 PM 26.6 °F 15.2 °F 24.8 °F 93% 30.36 in 3.0 mi NW 13.8 mph 20.7 mph 0.00 in Snow Light Snow
11:53 PM 28.0 °F 17.5 °F 25.0 °F 88% 30.44 in 10.0 mi NNW 12.7 mph 26.5 mph 0.00 in   Overcast